Location: ?????????
(44.2517°N, 135.2292°E)
Time: 06:14:58
(UTC+00:00)

ARIANE 6 FM1 Upper Stage - Pass Details

Date: 24 January 2026
Orbit: 522 x 609 km, 62.0° (Epoch: 8 February)

Event Time Altitude Azimuth Distance (km) Brightness Sun altitude
Rises 11:12:25 0° 269° (W) 2,693 7.2 -34.8°
Reaches altitude 10° 11:15:28 10° 293° (WNW) 1,789 6.0 -35.3°
Enters shadow 11:15:58 12° 300° (WNW) 1,683 5.7 -35.4°
